Location: Batang Balui
(2.7000°N, 113.7833°E)
Time: 03:49:36
(UTC+00:00)

Hubble Space Telescope - Pass Details

Date: 08 February 2023
Orbit: 527 x 530 km, 28.5° (Epoch: 26 March)

Event Time Altitude Azimuth Distance (km) Brightness Sun altitude
Exits shadow 21:21:01 49° 321° (NW) 685 0.9 -19.5°
Maximum altitude 21:22:00 73° 30° (NNE) 551 0.7 -19.3°
Drops below altitude 10° 21:26:05 10° 115° (ESE) 1,766 4.6 -18.3°
Sets 21:28:21 0° 117° (ESE) 2,657 5.9 -17.8°
